Hourly Weather Paxtaobod

Today, 7 August, Friday

Time Temperature Precipitation Wind Pressure Humidity
00:00 +29°C° 0 mm 3 mps 748 mmHg 24%
01:00 +29°C° 0 mm 3 mps 747 mmHg 25%
02:00 +28°C° 0 mm 4 mps 747 mmHg 26%
03:00 +28°C° 0 mm 4 mps 747 mmHg 27%
04:00 +28°C° 0 mm 3 mps 748 mmHg 30%
05:00 +29°C° 0 mm 4 mps 748 mmHg 27%
06:00 +30°C° 0 mm 4 mps 748 mmHg 25%
07:00 +30°C° 0 mm 4 mps 749 mmHg 22%
08:00 +32°C° 0 mm 4 mps 748 mmHg 22%
09:00 +33°C° 0 mm 4 mps 748 mmHg 22%
10:00 +35°C° 0 mm 5 mps 748 mmHg 21%
11:00 +36°C° 0 mm 6 mps 748 mmHg 19%
12:00 +38°C° 0 mm 7 mps 748 mmHg 18%
13:00 +39°C° 0 mm 8 mps 747 mmHg 17%
14:00 +38°C° 0 mm 8 mps 747 mmHg 18%
15:00 +38°C° 0 mm 8 mps 746 mmHg 19%
16:00 +36°C° 0 mm 7 mps 746 mmHg 21%
17:00 +35°C° 0 mm 6 mps 746 mmHg 22%
18:00 +34°C° 0 mm 5 mps 746 mmHg 24%
19:00 +32°C° 0 mm 4 mps 746 mmHg 25%
20:00 +30°C° 0 mm 4 mps 746 mmHg 28%
21:00 +29°C° 0 mm 4 mps 747 mmHg 31%
22:00 +27°C° 0 mm 3 mps 747 mmHg 34%
23:00 +27°C° 0 mm 3 mps 747 mmHg 36%

Tomorrow, 8 August, Saturday

Time Temperature Precipitation Wind Pressure Humidity
00:00 +26°C° 0 mm 3 mps 746 mmHg 38%
01:00 +25°C° 0 mm 2 mps 746 mmHg 40%
02:00 +25°C° 0 mm 3 mps 746 mmHg 40%
03:00 +25°C° 0 mm 3 mps 746 mmHg 41%
04:00 +25°C° 0 mm 3 mps 746 mmHg 41%
05:00 +26°C° 0 mm 4 mps 746 mmHg 39%
06:00 +27°C° 0 mm 4 mps 746 mmHg 36%
07:00 +29°C° 0 mm 4 mps 746 mmHg 33%
08:00 +30°C° 0 mm 5 mps 746 mmHg 32%
09:00 +33°C° 0 mm 6 mps 746 mmHg 30%
10:00 +34°C° 0 mm 6 mps 746 mmHg 29%
11:00 +34°C° 0 mm 7 mps 746 mmHg 28%
12:00 +35°C° 0 mm 7 mps 745 mmHg 28%
13:00 +35°C° 0 mm 7 mps 745 mmHg 28%
14:00 +36°C° 0 mm 7 mps 744 mmHg 26%
15:00 +36°C° 0 mm 6 mps 744 mmHg 24%
16:00 +38°C° 0 mm 6 mps 744 mmHg 21%
17:00 +36°C° 0 mm 5 mps 744 mmHg 23%
18:00 +34°C° 0 mm 4 mps 743 mmHg 24%
19:00 +33°C° 0 mm 3 mps 743 mmHg 26%
20:00 +31°C° 0 mm 2 mps 743 mmHg 27%
21:00 +30°C° 0 mm 2 mps 743 mmHg 29%
22:00 +29°C° 0 mm 2 mps 743 mmHg 31%
23:00 +29°C° 0 mm 2 mps 743 mmHg 31%

Day after tomorrow, 9 August, Sunday

Time Temperature Precipitation Wind Pressure Humidity
00:00 +29°C° 0 mm 3 mps 743 mmHg 31%
01:00 +29°C° 0 mm 3 mps 743 mmHg 31%
02:00 +28°C° 0 mm 3 mps 743 mmHg 33%
03:00 +28°C° 0 mm 2 mps 743 mmHg 35%
04:00 +27°C° 0 mm 2 mps 743 mmHg 37%
05:00 +28°C° 0 mm 3 mps 743 mmHg 35%
06:00 +30°C° 0 mm 3 mps 744 mmHg 32%
07:00 +31°C° 0 mm 3 mps 744 mmHg 30%
08:00 +34°C° 0 mm 4 mps 744 mmHg 26%
09:00 +36°C° 0 mm 5 mps 744 mmHg 22%
10:00 +39°C° 0 mm 6 mps 744 mmHg 18%
11:00 +40°C° 0 mm 6 mps 744 mmHg 17%
12:00 +41°C° 0 mm 7 mps 744 mmHg 16%
13:00 +43°C° 0 mm 7 mps 743 mmHg 15%
14:00 +43°C° 0 mm 7 mps 743 mmHg 14%
15:00 +41°C° 0 mm 7 mps 743 mmHg 14%
16:00 +41°C° 0 mm 7 mps 742 mmHg 13%
17:00 +40°C° 0 mm 6 mps 742 mmHg 14%
18:00 +37°C° 0 mm 5 mps 742 mmHg 15%
19:00 +36°C° 0 mm 4 mps 743 mmHg 16%
20:00 +34°C° 0 mm 4 mps 743 mmHg 20%
21:00 +33°C° 0 mm 4 mps 743 mmHg 23%
22:00 +32°C° 0 mm 4 mps 743 mmHg 26%
23:00 +30°C° 0 mm 4 mps 743 mmHg 30%

10 August, Monday

Time Temperature Precipitation Wind Pressure Humidity
00:00 +29°C° 0 mm 3 mps 743 mmHg 33%
01:00 +28°C° 0 mm 3 mps 743 mmHg 37%
02:00 +27°C° 0 mm 2 mps 743 mmHg 39%
03:00 +26°C° 0 mm 1 mps 743 mmHg 41%
04:00 +25°C° 0 mm 1 mps 743 mmHg 43%
05:00 +27°C° 0 mm 1 mps 744 mmHg 38%
06:00 +29°C° 0 mm 1 mps 744 mmHg 34%
07:00 +31°C° 0 mm 2 mps 744 mmHg 30%
08:00 +33°C° 0 mm 3 mps 745 mmHg 28%
09:00 +35°C° 0 mm 4 mps 745 mmHg 26%
10:00 +36°C° 0 mm 5 mps 745 mmHg 24%
11:00 +37°C° 0 mm 5 mps 745 mmHg 22%
12:00 +39°C° 0 mm 6 mps 745 mmHg 20%
13:00 +40°C° 0 mm 7 mps 745 mmHg 19%
14:00 +40°C° 0 mm 7 mps 744 mmHg 18%
15:00 +40°C° 0 mm 7 mps 744 mmHg 17%
16:00 +40°C° 0 mm 7 mps 744 mmHg 16%
17:00 +38°C° 0 mm 7 mps 744 mmHg 18%
18:00 +35°C° 0 mm 8 mps 744 mmHg 21%
19:00 +32°C° 0 mm 9 mps 744 mmHg 24%
20:00 +30°C° 0 mm 7 mps 745 mmHg 25%
21:00 +28°C° 0 mm 6 mps 745 mmHg 25%
22:00 +27°C° 0 mm 5 mps 745 mmHg 26%
23:00 +26°C° 0 mm 4 mps 746 mmHg 29%

11 August, Tuesday

Time Temperature Precipitation Wind Pressure Humidity
00:00 +25°C° 0 mm 3 mps 746 mmHg 32%
01:00 +23°C° 0 mm 2 mps 746 mmHg 34%
02:00 +22°C° 0 mm 1 mps 746 mmHg 36%
03:00 +22°C° 0 mm 1 mps 746 mmHg 39%
04:00 +19°C° 0 mm 0 mps 746 mmHg 41%
05:00 +21°C° 0 mm 0 mps 747 mmHg 36%
06:00 +23°C° 0 mm 0 mps 747 mmHg 32%
07:00 +25°C° 0 mm 0 mps 747 mmHg 27%
08:00 +28°C° 0 mm 1 mps 748 mmHg 24%
09:00 +30°C° 0 mm 1 mps 748 mmHg 21%
10:00 +31°C° 0 mm 2 mps 748 mmHg 19%
11:00 +33°C° 0 mm 3 mps 747 mmHg 17%
12:00 +35°C° 0 mm 4 mps 747 mmHg 15%
13:00 +36°C° 0 mm 5 mps 747 mmHg 13%
14:00 +36°C° 0 mm 5 mps 746 mmHg 13%
15:00 +36°C° 0 mm 5 mps 746 mmHg 12%
16:00 +37°C° 0 mm 5 mps 746 mmHg 12%
17:00 +35°C° 0 mm 5 mps 746 mmHg 14%
18:00 +34°C° 0 mm 5 mps 746 mmHg 15%
19:00 +32°C° 0 mm 4 mps 746 mmHg 17%
20:00 +30°C° 0 mm 5 mps 746 mmHg 20%
21:00 +28°C° 0 mm 5 mps 747 mmHg 23%
22:00 +27°C° 0 mm 5 mps 747 mmHg 27%
23:00 +26°C° 0 mm 4 mps 747 mmHg 28%

12 August, Wednesday

Time Temperature Precipitation Wind Pressure Humidity
00:00 +25°C° 0 mm 4 mps 747 mmHg 30%
01:00 +25°C° 0 mm 3 mps 747 mmHg 31%
02:00 +24°C° 0 mm 3 mps 747 mmHg 32%
03:00 +24°C° 0 mm 3 mps 747 mmHg 33%
04:00 +23°C° 0 mm 2 mps 747 mmHg 34%
05:00 +24°C° 0 mm 2 mps 747 mmHg 31%
06:00 +26°C° 0 mm 2 mps 747 mmHg 28%
07:00 +27°C° 0 mm 2 mps 748 mmHg 26%
08:00 +29°C° 0 mm 1 mps 748 mmHg 23%
09:00 +31°C° 0 mm 1 mps 748 mmHg 21%
10:00 +30°C° 0 mm 0 mps 748 mmHg 18%
11:00 +33°C° 0 mm 1 mps 748 mmHg 17%
12:00 +35°C° 0 mm 2 mps 748 mmHg 16%
13:00 +37°C° 0 mm 3 mps 747 mmHg 15%
14:00 +37°C° 0 mm 4 mps 747 mmHg 15%
15:00 +37°C° 0 mm 5 mps 747 mmHg 15%
16:00 +39°C° 0 mm 6 mps 747 mmHg 15%
17:00 +35°C° 0 mm 7 mps 747 mmHg 18%
18:00 +33°C° 0 mm 8 mps 747 mmHg 21%
19:00 +29°C° 0 mm 9 mps 747 mmHg 24%
20:00 +28°C° 0 mm 8 mps 747 mmHg 26%
21:00 +27°C° 0 mm 7 mps 748 mmHg 28%
22:00 +26°C° 0 mm 6 mps 748 mmHg 31%
23:00 +26°C° 0 mm 5 mps 748 mmHg 30%
Show more